Temp_Advection
nan nan nan nan nan nan nan nan nan nan nan nan nan nan nan nan nan nan nan nan nan nan nan nan nan nan nan nan nan nan nan nan nan nan nan nan nan nan nan nan nan nan nan
nan -0 -0 -0 -0 -0 0 0 0 0 0 0 0 0 1 0 0 0 0 0 0 0 0 0 -0 -0 0 0 0 1 1 0 0 0 0 0 0 0 0 0 0 -0 nan
nan -0 -0 0 -0 0 0 0 0 0 0 0 0 0 0 0 1 1 0 0 0 0 0 -0 -0 0 0 0 0 0 0 0 0 -0 0 0 0 0 0 0 0 -0 nan
nan -0 -0 0 0 0 0 0 0 0 0 0 0 0 0 0 1 1 0 0 0 1 0 0 0 0 0 0 0 0 0 0 -0 0 0 0 0 0 -0 -0 0 0 nan
nan -0 -0 0 0 0 -0 0 0 0 0 0 0 0 1 1 1 1 1 1 1 1 1 0 0 1 0 0 0 0 0 0 0 0 0 0 0 0 -0 -0 -0 -0 nan
nan -0 -0 -0 0 0 -0 0 0 0 0 1 1 1 1 1 0 0 1 1 1 0 0 0 0 0 0 0 -0 0 0 0 0 0 0 0 0 0 -0 -0 -0 -0 nan
nan -0 0 0 0 0 0 0 1 1 1 1 1 1 1 1 1 1 1 1 0 0 0 0 1 0 0 -0 0 0 0 0 0 0 0 0 0 -0 -0 -0 -0 -0 nan
nan -0 0 0 0 0 0 0 0 1 1 1 1 1 1 1 1 1 1 1 0 0 1 0 0 0 -0 0 0 0 0 0 0 0 -0 -0 0 0 -0 -0 -0 -0 nan
nan -0 -0 0 0 -0 -0 -0 0 0 0 0 1 1 0 0 0 1 0 0 0 0 0 0 -0 0 0 0 0 0 0 0 -0 -0 -0 -0 -0 -0 -0 -0 -0 -1 nan
nan -0 -0 0 0 0 -0 -0 -0 -0 -0 0 0 1 1 0 -0 -0 -0 1 0 0 -1 0 0 0 0 0 0 0 0 -0 -0 -0 -0 -0 -0 -0 -0 -0 -0 -0 nan
nan -0 -0 0 0 0 -0 0 0 -0 -0 0 0 0 1 0 0 0 -0 0 0 0 0 0 0 0 0 0 0 0 -0 0 -0 -0 -0 0 0 0 0 0 -0 -0 nan
nan -0 0 0 0 0 0 0 0 0 0 0 0 0 0 0 1 0 -0 -0 -0 -0 0 0 0 0 0 0 0 0 0 0 -0 0 0 -0 -0 -0 0 0 0 0 nan
nan -0 0 0 0 1 0 0 0 0 0 0 0 -0 0 0 0 1 0 0 0 0 0 0 -0 -0 0 0 0 0 -0 0 0 -0 0 0 0 -0 -0 0 0 0 nan
nan -0 0 0 0 1 1 1 0 0 -0 -0 -0 -0 -0 -0 -0 -0 -0 -0 -0 0 -0 -0 0 0 0 0 0 0 0 0 0 0 0 -0 -0 -0 -0 -0 -0 -0 nan
nan 0 0 0 0 1 1 1 1 0 0 0 -0 -0 -1 -1 -0 -0 0 -0 -0 -0 0 0 0 0 0 0 0 0 0 0 0 0 0 0 -0 -0 -0 -0 -0 -0 nan
nan 0 0 0 0 0 1 1 0 1 1 0 0 0 -0 -0 -0 0 0 0 0 0 0 0 0 0 0 0 0 0 0 0 0 0 0 -0 0 -0 0 0 0 -0 nan
nan 0 0 0 0 0 0 0 -0 0 1 1 0 0 1 0 -0 -0 -0 0 0 0 0 0 0 0 0 0 0 0 0 0 0 0 0 -0 0 0 0 0 0 -0 nan
nan 0 -0 -0 -0 0 -0 0 0 0 -0 0 0 1 0 0 0 0 0 0 0 0 0 0 0 0 0 0 0 0 0 0 0 0 0 0 0 0 -0 -0 -0 -0 nan
nan 0 -0 -0 -0 -0 -0 0 0 0 1 -0 -0 0 0 1 0 0 0 0 0 0 0 0 0 0 0 0 0 0 0 0 0 0 0 0 -0 0 0 0 -0 -0 nan
nan 0 0 -0 -0 -0 -0 -0 -0 -0 -0 -0 -0 -0 -0 -0 -0 -0 0 0 0 0 0 0 0 0 0 0 0 0 0 0 0 0 0 0 0 -0 0 0 -0 -0 nan
nan 0 0 0 -0 -0 -0 -0 -1 -1 -1 -0 -0 0 -0 -0 0 0 0 0 0 0 0 0 0 0 0 0 0 0 -0 -0 0 0 0 0 0 -0 -0 0 -0 -0 nan
nan 0 -0 -0 -0 -0 0 0 -0 -0 0 0 0 0 -0 0 0 0 0 0 0 0 0 0 0 0 0 0 0 -0 -0 -0 -0 -0 0 0 0 0 0 0 -0 0 nan
nan 0 -0 -0 0 0 0 0 0 0 0 0 0 -0 0 0 0 0 0 0 0 0 0 0 0 0 0 0 0 0 -0 -0 -0 -0 0 0 0 0 0 -0 -0 -0 nan
nan 0 0 0 0 1 1 1 0 0 0 0 0 0 0 0 0 0 0 0 0 0 0 0 0 0 0 0 0 0 0 -0 -0 -0 0 0 0 0 0 -0 -0 -0 nan
nan 0 0 1 0 1 1 0 1 0 0 0 0 0 1 0 0 0 0 0 0 0 0 0 0 0 0 0 0 0 0 -0 -0 -0 0 0 0 0 0 -0 -0 -0 nan
nan nan nan nan nan nan nan nan nan nan nan nan nan nan nan nan nan nan nan nan nan nan nan nan nan nan nan nan nan nan nan nan nan nan nan nan nan nan nan nan nan nan nan
Wind_Speed
18 13 12 13 12 12 14 16 18 16 20 19 21 20 32 33 32 30 30 31 32 32 27 22 26 22 22 20 18 16 16 16 14 13 17 18 16 16 16 17 19 19 18
11 10 12 13 14 15 15 14 17 17 19 20 18 20 24 26 29 33 30 29 31 33 31 28 24 21 19 18 18 17 16 15 10 10 15 14 13 13 15 16 16 17 17
11 10 12 14 17 17 16 16 18 20 19 21 23 21 23 28 32 30 28 28 25 21 21 23 21 20 21 20 15 13 11 7 6 9 12 12 11 12 13 14 14 15 17
11 11 11 11 11 12 14 19 18 18 19 22 21 21 25 28 31 30 27 24 26 28 27 21 20 18 16 13 12 12 11 7 8 8 9 9 9 10 11 13 13 13 13
13 13 11 12 11 9 13 14 17 18 19 19 18 24 32 30 29 27 27 25 25 25 23 19 17 16 14 13 9 5 7 8 7 5 6 6 7 8 10 12 14 15 14
15 15 13 14 11 11 7 15 18 18 20 21 24 25 27 24 25 22 23 26 25 25 21 24 21 17 14 11 7 8 6 5 2 3 5 5 6 8 10 12 14 16 17
14 13 12 14 12 8 14 14 21 20 22 24 31 29 24 26 25 26 23 21 24 25 25 21 18 16 10 9 9 7 5 3 3 4 4 5 7 8 10 12 13 16 18
11 8 10 12 9 7 8 10 15 20 24 19 19 17 22 21 25 27 26 27 28 22 19 18 12 13 12 10 6 4 2 2 2 2 5 6 8 10 10 13 15 17 18
9 8 9 7 8 12 12 12 18 16 13 19 22 22 23 28 35 34 30 27 24 23 18 15 13 11 7 5 4 3 3 1 3 5 6 8 11 12 13 13 15 18 19
8 7 6 6 16 13 17 12 18 17 18 23 26 25 25 27 28 27 29 21 21 20 18 14 12 10 7 5 3 1 1 2 3 5 6 7 9 11 13 14 16 17 18
8 3 5 14 16 15 16 18 16 20 20 23 24 22 26 27 25 24 23 24 24 22 18 16 12 8 6 4 3 1 1 3 4 5 7 9 10 11 12 12 14 14 15
7 2 5 13 17 21 19 18 20 21 23 24 24 25 26 25 26 26 25 21 18 16 15 13 10 7 4 3 2 1 2 3 5 6 8 9 10 11 10 10 11 12 13
7 3 5 12 18 20 17 18 20 22 25 25 28 29 28 29 29 23 20 18 15 13 12 10 6 4 4 2 1 1 3 3 5 7 8 8 9 9 10 10 11 10 9
7 4 6 10 17 21 21 21 22 26 28 30 31 31 33 30 25 23 21 19 17 15 10 7 5 4 3 2 1 2 3 5 6 7 7 8 9 9 9 11 11 11 12
6 4 7 12 16 21 24 23 24 26 27 32 32 33 28 26 23 20 17 16 13 10 7 6 5 4 2 1 2 4 5 7 7 7 8 8 8 9 9 11 10 12 16
5 3 6 11 16 20 23 24 22 24 28 30 33 26 23 20 20 18 16 14 11 8 7 5 3 3 3 4 4 5 7 7 7 8 8 8 8 8 10 9 10 13 16
5 3 7 11 16 19 22 25 28 25 27 29 26 21 19 20 19 17 15 13 11 8 5 5 5 4 4 4 5 6 7 7 7 7 7 8 9 9 10 10 10 12 14
4 4 8 12 16 19 23 28 29 34 33 26 20 18 18 17 17 16 15 13 10 7 6 5 4 4 5 5 6 6 6 6 6 7 8 9 9 9 9 9 9 13 16
8 7 10 14 17 22 26 29 34 31 26 25 24 19 18 17 16 16 14 10 8 7 6 4 4 4 4 5 6 6 6 7 7 8 8 8 9 10 8 7 9 12 16
12 10 13 16 19 24 29 32 32 29 27 28 25 23 23 20 21 19 15 11 9 7 4 4 3 4 5 6 6 5 6 7 8 8 8 8 8 8 7 6 9 14 16
15 14 16 19 23 28 30 26 24 25 25 23 22 17 17 21 18 14 14 11 8 6 3 3 5 5 4 4 4 5 7 8 8 8 8 8 8 7 7 8 10 14 16
16 20 20 24 27 30 25 22 21 21 21 19 19 19 17 16 14 14 13 10 8 5 3 4 4 4 4 4 5 5 6 8 9 8 8 7 6 6 7 7 11 14 14
17 24 24 27 29 26 24 22 22 22 21 18 18 19 18 17 16 15 12 10 8 5 5 4 4 4 6 6 6 7 8 9 9 8 8 7 6 6 7 7 11 12 12
18 24 28 29 30 26 24 24 22 20 17 17 18 18 16 16 15 14 12 11 9 7 6 6 6 7 8 8 9 9 9 9 9 9 8 7 7 7 6 7 10 12 14
20 22 28 31 33 31 28 27 26 23 19 18 18 17 16 15 14 13 13 11 10 8 8 8 10 10 11 11 12 12 10 10 10 10 9 8 7 7 7 8 10 14 15
17 20 24 28 31 32 32 29 26 18 16 16 15 15 15 14 11 11 11 12 10 9 9 10 13 12 11 11 10 10 10 10 10 10 9 7 8 7 8 9 9 12 14
Wind_Direction
281 278 265 266 268 259 245 243 247 243 245 241 241 239 234 233 222 214 206 209 210 214 214 220 226 225 232 235 242 250 238 227 237 244 237 240 247 262 278 294 300 304 310
306 291 262 264 262 257 254 248 243 242 244 239 237 234 235 222 209 202 208 212 209 214 213 211 214 219 230 233 230 235 224 229 229 257 250 239 252 268 281 292 298 305 313
310 288 277 266 260 256 246 251 242 244 240 242 238 234 230 226 218 200 201 202 201 216 214 219 221 218 225 205 202 204 205 221 240 250 244 247 257 272 286 295 304 314 314
300 287 284 279 260 248 244 251 248 244 236 235 228 229 219 198 194 192 193 196 212 209 205 197 197 197 200 191 188 206 248 247 232 233 246 250 265 282 294 304 309 312 319
295 284 278 287 270 250 276 257 245 243 234 228 229 218 209 200 191 196 199 192 179 174 176 177 182 183 187 190 209 185 216 230 235 241 263 269 278 299 309 314 321 329 329
300 286 277 287 295 256 308 275 242 234 225 224 207 192 179 188 176 174 182 178 182 174 183 180 174 177 195 183 191 202 212 228 267 289 261 283 302 311 321 326 327 329 335
309 287 286 289 258 298 261 245 226 217 206 191 173 171 168 169 166 168 179 174 163 172 175 174 192 185 167 192 199 200 212 237 268 257 278 318 325 328 326 325 328 333 331
318 292 286 281 234 274 229 229 199 179 159 165 173 175 173 173 170 161 160 160 166 166 184 177 162 173 177 178 182 203 216 199 220 282 336 330 325 323 329 329 329 329 330
333 307 294 279 214 150 136 134 156 160 172 167 164 171 173 167 161 161 169 169 172 172 146 160 165 163 166 178 185 180 203 257 342 334 325 328 329 328 331 330 325 327 330
336 314 285 235 177 165 167 162 167 165 162 167 163 165 167 160 164 164 165 176 149 151 156 156 168 172 173 169 171 182 267 338 329 322 327 327 321 318 322 323 324 330 331
343 334 247 196 188 177 166 172 169 168 168 167 165 163 158 156 159 166 159 149 158 158 167 171 168 166 158 155 147 155 322 320 317 330 324 314 315 316 317 320 321 322 326
338 312 204 200 194 174 180 178 172 175 171 168 164 160 160 162 164 151 142 158 167 173 168 160 153 148 143 148 175 168 310 324 321 315 315 319 319 316 318 324 322 323 328
331 282 201 195 196 185 189 180 178 179 172 166 165 159 157 151 139 146 161 161 158 158 155 151 143 146 162 168 189 293 323 311 311 320 316 310 317 328 324 327 326 322 326
328 277 210 199 194 195 191 183 183 177 172 168 165 161 156 149 157 163 162 160 160 160 155 151 164 174 178 190 267 302 301 304 307 309 314 325 323 324 330 329 331 332 337
318 262 215 200 195 188 186 186 185 182 180 170 167 158 153 163 165 162 159 156 153 150 161 173 173 166 171 223 271 279 292 304 307 312 318 320 322 330 335 333 337 341 346
316 241 213 200 190 189 186 178 181 179 174 169 157 152 163 160 157 155 153 152 155 161 168 163 165 190 211 235 260 286 292 296 303 310 318 323 326 329 332 341 341 340 344
292 225 195 189 187 185 181 176 168 167 163 161 149 164 165 160 158 155 156 161 165 170 167 178 190 201 229 250 269 282 289 296 310 316 312 319 333 334 332 335 336 337 342
252 226 192 188 185 179 176 169 164 160 157 157 160 163 165 165 160 161 171 172 171 169 178 181 196 223 242 262 279 288 300 306 315 319 322 323 322 328 331 329 331 339 344
224 208 184 173 173 175 172 166 156 155 157 158 164 166 168 167 169 177 176 170 169 175 178 189 218 241 263 282 293 300 310 317 314 316 314 312 321 327 325 326 336 343 342
219 205 192 183 176 172 168 163 159 164 167 177 175 172 168 176 187 186 178 179 181 182 193 217 246 270 280 294 306 304 306 314 314 315 310 310 316 320 331 326 330 338 344
221 200 193 186 180 173 170 170 171 176 179 178 172 181 197 194 190 182 181 183 185 197 216 261 271 274 288 304 301 304 316 316 315 314 311 307 309 326 329 320 330 336 336
226 196 188 183 179 177 177 179 179 178 176 174 190 191 194 189 186 186 187 190 199 210 241 264 270 274 283 293 305 318 323 326 325 322 311 301 306 320 326 322 331 335 333
227 197 186 182 180 183 184 180 177 177 179 193 196 196 193 188 189 191 195 204 212 227 255 268 277 277 281 290 305 317 325 332 334 322 307 293 300 315 320 320 335 341 339
224 201 192 185 183 184 183 181 181 182 195 195 196 200 197 195 197 200 207 219 228 243 262 273 277 279 284 293 304 310 314 318 320 319 310 288 291 300 297 316 330 338 339
222 206 200 194 190 182 187 191 185 190 194 195 198 200 196 195 199 206 217 228 240 252 265 270 275 281 286 286 286 287 293 299 304 305 301 286 282 285 279 300 319 329 332
220 213 205 201 200 194 190 196 183 185 186 188 197 200 196 197 202 222 229 239 247 259 268 274 284 284 288 293 293 286 282 287 293 296 298 285 269 273 288 298 313 332 338
Height
1437 1437 1438 1439 1440 1441 1442 1444 1446 1448 1451 1454 1458 1461 1463 1467 1472 1478 1485 1490 1497 1502 1507 1512 1518 1519 1523 1526 1530 1532 1532 1532 1533 1535 1538 1537 1539 1537 1536 1535 1533 1532 1529
1434 1434 1434 1435 1436 1438 1439 1441 1443 1445 1448 1450 1453 1457 1460 1464 1468 1475 1481 1487 1492 1499 1504 1509 1512 1517 1519 1523 1525 1527 1530 1529 1531 1533 1536 1535 1534 1534 1534 1531 1531 1528 1524
1433 1432 1432 1432 1433 1434 1436 1437 1439 1441 1443 1447 1448 1452 1456 1460 1465 1472 1477 1484 1490 1495 1502 1506 1510 1513 1518 1519 1520 1523 1528 1528 1526 1530 1534 1532 1531 1531 1530 1529 1527 1522 1521
1432 1431 1430 1430 1430 1430 1431 1433 1434 1436 1439 1441 1445 1448 1452 1457 1462 1469 1474 1481 1486 1493 1498 1504 1509 1513 1518 1517 1519 1522 1524 1525 1526 1527 1529 1529 1529 1528 1527 1525 1523 1521 1519
1429 1428 1428 1428 1428 1428 1427 1429 1430 1434 1435 1438 1442 1445 1450 1454 1459 1466 1473 1478 1485 1492 1498 1503 1508 1511 1515 1517 1519 1516 1522 1525 1525 1522 1526 1526 1526 1525 1523 1523 1520 1517 1516
1427 1425 1425 1426 1426 1425 1426 1426 1427 1430 1432 1436 1438 1442 1448 1454 1459 1466 1473 1479 1485 1493 1497 1503 1507 1511 1513 1514 1515 1517 1520 1522 1520 1520 1525 1524 1522 1522 1522 1520 1517 1515 1513
1424 1423 1423 1423 1422 1423 1423 1424 1425 1428 1431 1436 1439 1443 1449 1457 1462 1468 1474 1479 1485 1492 1498 1502 1505 1507 1510 1512 1517 1518 1518 1517 1517 1522 1523 1520 1519 1520 1520 1518 1516 1514 1512
1422 1421 1421 1420 1421 1422 1423 1424 1427 1431 1435 1438 1443 1447 1451 1457 1463 1467 1474 1481 1488 1493 1498 1500 1505 1508 1512 1515 1515 1514 1515 1517 1518 1519 1518 1517 1518 1518 1517 1516 1515 1513 1510
1422 1421 1420 1421 1422 1423 1426 1428 1431 1435 1437 1440 1445 1449 1452 1457 1463 1469 1477 1483 1488 1492 1497 1502 1506 1508 1510 1511 1513 1516 1517 1517 1516 1517 1518 1517 1516 1516 1515 1515 1513 1510 1507
1423 1421 1421 1421 1423 1425 1428 1431 1434 1437 1440 1444 1448 1452 1456 1461 1468 1473 1479 1483 1488 1494 1500 1504 1506 1508 1510 1511 1513 1514 1516 1516 1517 1517 1517 1516 1516 1515 1514 1513 1511 1508 1505
1423 1422 1422 1423 1426 1428 1430 1433 1437 1439 1443 1447 1451 1456 1461 1466 1471 1477 1481 1486 1493 1497 1501 1503 1506 1507 1509 1511 1512 1513 1514 1516 1516 1515 1516 1516 1515 1514 1513 1511 1508 1506 1504
1423 1422 1423 1424 1427 1429 1432 1434 1437 1441 1445 1449 1454 1460 1465 1469 1474 1479 1485 1491 1495 1498 1500 1502 1505 1507 1508 1510 1512 1513 1514 1514 1515 1515 1516 1515 1514 1512 1510 1508 1506 1504 1502
1424 1424 1424 1425 1427 1430 1433 1435 1439 1443 1447 1452 1457 1462 1467 1472 1477 1483 1487 1491 1495 1498 1500 1502 1504 1506 1508 1510 1511 1513 1513 1514 1515 1515 1515 1514 1512 1510 1508 1507 1505 1503 1501
1425 1424 1425 1426 1427 1430 1433 1436 1439 1443 1448 1453 1459 1464 1469 1474 1479 1483 1487 1491 1495 1497 1500 1502 1505 1507 1508 1510 1511 1512 1513 1514 1514 1514 1513 1512 1510 1508 1506 1504 1503 1501 1499
1426 1425 1424 1426 1428 1430 1434 1437 1441 1446 1450 1454 1461 1467 1471 1476 1481 1486 1490 1493 1495 1498 1501 1504 1506 1507 1508 1509 1511 1512 1513 1512 1513 1512 1511 1509 1507 1506 1504 1502 1500 1499 1496
1426 1426 1426 1427 1429 1431 1434 1439 1445 1449 1454 1460 1465 1472 1475 1480 1484 1488 1491 1494 1497 1500 1502 1504 1505 1507 1509 1510 1511 1511 1511 1511 1511 1510 1508 1506 1505 1504 1502 1500 1499 1497 1494
1427 1426 1427 1428 1430 1432 1436 1440 1444 1453 1459 1465 1469 1474 1478 1482 1486 1489 1493 1496 1499 1501 1503 1505 1506 1507 1509 1510 1510 1510 1510 1510 1508 1507 1506 1504 1503 1502 1500 1499 1498 1496 1493
1427 1427 1428 1430 1432 1435 1438 1443 1447 1453 1458 1464 1471 1476 1480 1484 1487 1491 1494 1497 1499 1501 1503 1504 1506 1508 1509 1509 1509 1508 1508 1507 1505 1504 1503 1503 1501 1500 1499 1497 1496 1494 1492
1426 1427 1429 1431 1434 1437 1441 1446 1451 1457 1463 1467 1471 1476 1481 1485 1489 1492 1494 1497 1499 1501 1503 1504 1505 1506 1506 1506 1506 1506 1505 1504 1503 1503 1502 1501 1499 1498 1497 1496 1495 1493 1491
1424 1427 1430 1433 1436 1440 1445 1449 1454 1459 1464 1468 1472 1476 1480 1485 1487 1490 1494 1496 1499 1500 1502 1503 1503 1504 1504 1504 1504 1503 1503 1502 1501 1500 1499 1499 1498 1497 1496 1495 1494 1492 1489
1422 1426 1429 1433 1437 1441 1446 1451 1455 1460 1464 1469 1473 1478 1480 1484 1487 1491 1493 1496 1498 1500 1500 1501 1502 1502 1502 1502 1501 1501 1500 1500 1499 1498 1497 1496 1496 1495 1495 1494 1493 1491 1488
1420 1423 1427 1432 1437 1442 1447 1451 1456 1460 1464 1469 1474 1477 1481 1484 1488 1490 1493 1495 1497 1498 1499 1500 1500 1500 1500 1500 1499 1499 1498 1498 1497 1496 1495 1494 1494 1494 1493 1493 1491 1489 1486
1417 1421 1426 1430 1436 1442 1446 1451 1455 1460 1464 1469 1472 1476 1479 1483 1486 1489 1492 1494 1495 1496 1498 1498 1498 1498 1498 1498 1498 1497 1497 1496 1495 1494 1493 1492 1492 1492 1491 1491 1489 1487 1485
1415 1418 1423 1429 1434 1440 1445 1450 1454 1459 1463 1467 1471 1474 1478 1481 1484 1487 1490 1492 1493 1494 1495 1495 1495 1495 1495 1495 1495 1495 1495 1494 1493 1492 1491 1491 1490 1490 1490 1489 1488 1486 1484
1414 1416 1421 1426 1431 1436 1443 1448 1452 1457 1461 1465 1469 1473 1476 1480 1483 1485 1488 1490 1491 1492 1492 1492 1492 1493 1492 1492 1492 1492 1492 1491 1491 1490 1489 1488 1488 1488 1488 1488 1487 1485 1483
1412 1415 1419 1424 1429 1433 1439 1445 1450 1455 1460 1464 1469 1472 1475 1478 1481 1484 1486 1487 1488 1489 1489 1489 1490 1489 1488 1488 1488 1488 1488 1488 1488 1487 1486 1486 1486 1486 1486 1486 1485 1484 1481